Weather History for Beaufort MCAS, SC

Change the Weather History Date:

Sunday, November 10, 2013

  Actual Average Record
Temperature  
Mean Temperature 61 °F -  
Max Temperature 70 °F 70 °F 86 °F (1948)
Min Temperature 50 °F 52 °F 32 °F (1941)
Degree Days  
Heating Degree Days 4    
Growing Degree Days 11 (Base 50)    
Moisture  
Dew Point 50 °F    
Average Humidity 74    
Maximum Humidity 93    
Minimum Humidity 42    
Precipitation  
Precipitation 0.00 in - - ()
Sea Level Pressure  
Sea Level Pressure 30.21 in    
Wind  
Wind Speed 2 mph (NW)    
Max Wind Speed 9 mph    
Max Gust Speed -    
Visibility 10 miles    
Events      
Averages and records for this station are not official NWS values.
T = Trace of Precipitation, MM = Missing Value Source: NWS Daily Summary

Daily Weather History Graph

Daily Weather History Graph

Search for Another Location

Airport:

Trip Planner

Search our weather history database for the weather conditions in past years. The results will help you decide how hot, cold, wet, or windy it might be!

Date:

Astronomy

Nov. 10, 2013 Rise Set
Actual Time 6:48 AM EST 5:25 PM EST
Civil Twilight 6:22 AM EST 5:50 PM EST
Nautical Twilight 5:52 AM EST 6:20 PM EST
Astronomical Twilight 5:23 AM EST 6:49 PM EST
Moon 1:07 PM EST (11/10) No Moon Set
Length of Visible Light 11h 28m
Length of Day
10h 36m
First Quarter, 55% of the Moon is Illuminated
Nov 10
First Quarter
Nov 17
Full
Nov 25
Last Quarter
Dec 2
New
Dec 9
First Quarter

Hourly Weather History & Observations

Time (EST) Temp. Dew Point Humidity Pressure Visibility Wind Dir Wind Speed Gust Speed Precip Events Conditions
12:56 AM 54.0 °F 50.0 °F 86% 30.23 in 10.0 mi Calm Calm - N/A   Clear
1:56 AM 53.1 °F 50.0 °F 89% 30.22 in 10.0 mi Calm Calm - N/A   Clear
2:56 AM 54.0 °F 50.0 °F 86% 30.22 in 10.0 mi Calm Calm - N/A   Clear
3:56 AM 54.0 °F 51.1 °F 90% 30.21 in 10.0 mi Calm Calm - N/A   Clear
4:56 AM 55.0 °F 52.0 °F 89% 30.21 in 10.0 mi North 3.5 mph - N/A   Clear
5:56 AM 55.9 °F 51.1 °F 84% 30.22 in 10.0 mi NNW 3.5 mph - N/A   Partly Cloudy
6:56 AM 55.9 °F 51.1 °F 84% 30.23 in 10.0 mi Calm Calm - N/A   Clear
7:56 AM 57.0 °F 52.0 °F 83% 30.24 in 10.0 mi Calm Calm - N/A   Clear
8:56 AM 60.1 °F 53.1 °F 78% 30.27 in 10.0 mi NNW 3.5 mph - N/A   Clear
9:56 AM 61.0 °F 52.0 °F 72% 30.26 in 10.0 mi North 4.6 mph - N/A   Clear
10:56 AM 64.9 °F 52.0 °F 63% 30.26 in 10.0 mi NNW 6.9 mph - N/A   Clear
11:56 AM 70.0 °F 51.1 °F 51% 30.23 in 10.0 mi North 8.1 mph - N/A   Clear
12:56 PM 70.0 °F 46.9 °F 44% 30.19 in 10.0 mi NNW 8.1 mph - N/A   Mostly Cloudy
1:56 PM 70.0 °F 46.0 °F 42% 30.18 in 10.0 mi NNW 9.2 mph - N/A   Partly Cloudy
2:56 PM 70.0 °F 46.9 °F 44% 30.16 in 10.0 mi WNW 4.6 mph - N/A   Overcast
3:56 PM 70.0 °F 46.0 °F 42% 30.17 in 10.0 mi WNW 4.6 mph - N/A   Clear
4:56 PM 68.0 °F 48.0 °F 49% 30.17 in 10.0 mi Calm Calm - N/A   Partly Cloudy
5:56 PM 61.0 °F 53.1 °F 75% 30.17 in 10.0 mi Calm Calm - N/A   Clear
6:56 PM 57.0 °F 53.1 °F 87% 30.18 in 10.0 mi Calm Calm - N/A   Clear
7:56 PM 55.0 °F 52.0 °F 89% 30.19 in 10.0 mi Calm Calm - N/A   Clear
8:56 PM 53.1 °F 48.0 °F 83% 30.19 in 10.0 mi SW 3.5 mph - N/A   Clear
9:56 PM 54.0 °F 50.0 °F 86% 30.20 in 10.0 mi Calm Calm - N/A   Clear
10:56 PM 52.0 °F 48.0 °F 86% 30.19 in 10.0 mi WSW 4.6 mph - N/A   Clear
11:56 PM 50.0 °F 48.0 °F 93% 30.19 in 10.0 mi Calm Calm - N/A   Clear